STARLINK-11077 (58707 NORAD) Tracking and Keplerian Element Data

This shows tracking and keplerian element data for the satellite.

Feedback or suggestion? Click here.




ElementValue
Catalog58707
NameSTARLINK-11077
Epoch Orbit272
Epoch Day12.91667824
Epoch Year2024
RAAN199.9327
Inclination53.1618
Eccentricity0.0001561
Argument of Perigee54.5828
Mean Anonmoly344.4852
Mean Motion15.69661626
Decay Rate0.00089878
L11 58707U 24002C 24012.91667824 .00089878 00000+0 74017-3 0 9998
L22 58707 53.1618 199.9327 0001561 54.5828 344.4852 15.69661626 2727



Live tracking and technical data element details for STARLINK-11077 (NORAD 58707). STARLINK-11077 can be tracked NOW for your location showing map with azimuth and elevation plus other details from your city location.







IsCatalogInMostPopularTable: catalog: 58707, numindb: 25
Update: records affected: 1



GetName: 58707 STARLINK-11077

Hit Count: updated at: Wed, 17 Apr 2024 02:34:43 GMT